afribaba.cm alexa rank chart, afribaba.cm alexa rank daily changes

afribaba.cm alexa rank chart, afribaba.cm alexa rank daily changes

afribaba.cm
Actual rank:
80 234

RANK HISTORY

Date Rank Diff
2017/03/26 80 234 +2 563
2017/03/25 77 671 -718
2017/03/24 78 389 -449
2017/03/23 78 838 -1 048
2017/03/22 79 886 +33
2017/03/21 79 853 +22
2017/03/20 79 831 -294
2017/03/19 80 125 -799
2017/03/18 80 924 -514
2017/03/17 81 438 +330
2017/03/16 81 108 -162
2017/03/15 81 270 +641
2017/03/14 80 629 -51
2017/03/13 80 680 -528
2017/03/12 81 208 +808
2017/03/11 80 400 +102
2017/03/10 80 298 -980
2017/03/09 81 278 +160
2017/03/08 81 118 +882
2017/03/07 80 236 +3 398
2017/03/06 76 838 +1 238
2017/03/01 75 600 +1 332
2017/02/28 74 268 -210
2017/02/27 74 478 +370
2017/02/26 74 108 -1 259
2017/02/25 75 367 -331
2017/02/24 75 698 +481
2017/02/23 75 217 +1 430
2017/02/22 73 787 +354
2017/02/21 73 433 +352
2017/02/20 73 081 +609
2017/02/19 72 472 +216
2017/02/18 72 256 +430
2017/02/17 71 826 -273
2017/02/16 72 099 +313
2017/02/15 71 786 +348
2017/02/14 71 438 +152
2017/02/13 71 286 +296
2017/02/12 70 990 -203
2017/02/11 71 193 +200
2017/02/10 70 993 +5
2017/02/09 70 988 +84
2017/02/08 70 904 +745
2017/02/07 70 159 -550
2017/02/06 70 709 +457
2017/02/05 70 252 +398
2017/02/04 69 854 +414
2017/02/03 69 440 -1 287
2017/02/02 70 727 +450
2017/02/01 70 277 -1 230
2017/01/31 71 507 +365
2017/01/30 71 142 +1 179
2017/01/29 69 963 -1 032
2017/01/28 70 995 +692
2017/01/27 70 303 -48
2017/01/26 70 351 -841
2017/01/25 71 192

WIDGET FOR YOUR SITE

DOMAINS WITH THE NEAREST RANK

Domain Rank
xxxtubfree.com 80 229
arabmmo.com 80 230
peoplepc.com 80 231
ngage-media.com 80 232
hilti.com 80 233
afribaba.cm 80 234
dialcom.lk 80 235
poslovna.hr 80 236
appsapk.space 80 237
airfrance.co.uk 80 238
italia-ru.com 80 239

DOMAINS WITH THE NEAREST RANK BY TLD .cm

Domain Rank
afribaba.cm 80 234